Tracking 30415 objects as of 15-May-2025
HD Live streaming from Space Station
objects crossing your sky now

TIANMU-1 03

Track TIANMU-1 03 now!
10-day predictions


NORAD ID: 55973
Int'l Code: 2023-039A
Perigee: 465.2 km
Apogee: 472.6 km
Inclination: 97.5 °
Period: 93.8 minutes
Semi major axis: 6839 km
RCS: Unknown
Launch date: March 22, 2023
Source: People's Republic of China (PRC)
Launch site: Jiuquan Satellite Launch Center, China (JSC)
Your satellite tracking list
Your tracking list is empty




NASA's NSSDC Master Catalog

Two Line Element Set (TLE):
1 55973U 23039A   25134.81617459  .00011306  00000-0  33817-3 0  9998
2 55973  97.4985 292.9249 0005374  95.4481 264.7375 15.34715820119506
Source of the keplerian elements: AFSPC